Location: St Andrew
(49.4460°N, 2.5750°W)
Time: 11:10:41
(UTC+01:00)

Daily predictions for brighter satellites

Satellite Brightness Start Highest point End
(mag) Time Altitude Azimuth Time Altitude Azimuth Time Altitude Azimuth
Cosmos 1862 3.3 20:51:14 10° N 20:55:18 84° E 20:59:20 10° S
Helios 1A 3.0 20:52:07 10° SSE 20:56:22 85° ENE 21:00:39 10° NNW
USA 234 3.4 20:51:10 10° ESE 20:57:44 88° SSW 21:04:20 10° WNW
Cosmos 1862 Rocket 3.7 20:55:38 10° S 21:00:01 57° E 21:04:26 10° NNE
Cosmos 968 Rocket 3.6 20:57:31 10° NNW 21:02:43 70° ENE 21:07:56 10° SSE
Cosmos 1655 Rocket 4.2 20:57:22 10° N 21:03:49 87° W 21:10:11 10° S
Cosmos 2266 Rocket 4.4 20:59:56 10° N 21:06:01 48° ENE 21:12:08 10° SSE
Atlas Centaur 2 4.3 21:03:04 10° SSW 21:06:45 15° S 21:10:46 10° SE
Cosmos 2322 Rocket 2.3 21:01:53 10° SSW 21:07:30 89° WNW 21:13:11 10° NNE
Terra 4.0 21:11:16 10° ENE 21:13:09 12° NE 21:15:02 10° NNE
Cosmos 2360 Rocket 2.5 21:10:01 10° S 21:15:24 46° ESE 21:20:49 10° NE
Cosmos 1980 Rocket 4.1 21:11:21 10° WSW 21:16:35 36° NW 21:21:52 10° NNE
COSMOS 2428 3.8 21:12:38 10° SSE 21:17:03 24° ESE 21:21:29 10° NE
Cosmos 1703 Rocket 4.2 21:16:39 10° SSE 21:20:45 37° E 21:24:49 10° NNE
Cosmos 1939 Rocket 3.0 21:17:18 10° S 21:21:20 79° WSW 21:25:19 10° NNW
CENTAUR R/B 4.2 21:15:37 10° W 21:21:40 38° NNW 21:28:31 10° NE
Cosmos 1867 3.9 21:17:46 10° NW 21:23:11 63° WSW 21:28:33 10° SSE
Cosmos 2279 Rocket 4.1 21:17:41 10° S 21:23:56 85° W 21:30:13 10° N
ATLAS 5 CENTAUR R/B 2.9 21:18:17 10° NW 21:24:04 57° SW 21:30:21 10° SSE
Cosmos 1844 4.4 21:18:42 10° NNW 21:24:06 42° NE 21:28:52 13° ESE
Envisat 3.4 21:19:19 10° S 21:24:22 67° WSW 21:29:28 10° NNW
Meteor 1-14 Rocket 4.3 21:21:12 10° N 21:26:51 67° ENE 21:32:36 10° SSE
Meteor 1-25 Rocket 4.5 21:23:14 10° N 21:28:41 52° ENE 21:33:43 12° SSE
NOAA 11 4.5 21:23:38 10° SE 21:28:58 54° ENE 21:34:18 10° N
H-2A R/B 3.2 21:26:39 12° ESE 21:30:19 27° ENE 21:34:25 10° N
Cosmos 1825 4.4 21:27:27 10° NNW 21:30:41 26° W 21:33:54 10° SSW
Cosmos 2322 3.8 21:27:00 10° S 21:32:33 54° ESE 21:38:06 10° NE
USA 186 4.4 21:32:26 10° SW 21:34:32 18° W 21:36:44 10° NW
Lacrosse 4 Rocket 4.2 21:32:47 10° WNW 21:35:05 14° WSW 21:37:24 10° SW
Helios 1B rocket 2.8 21:31:12 10° N 21:35:19 70° WNW 21:39:23 10° SSW
ARGOS 3.5 21:32:57 13° SE 21:37:28 48° ENE 21:42:39 10° N
SL-16 R/B 2.9 21:32:34 10° SW 21:38:08 58° WNW 21:43:46 10° NNE
Meteor 1-20 Rocket 4.4 21:33:27 10° N 21:38:56 56° ENE 21:43:44 14° SSE
Meteor 1-29 3.3 21:35:47 10° N 21:39:17 69° WNW 21:42:43 10° SSW
Abrixas rocket 2.1 21:38:48 10° W 21:42:05 74° S 21:44:24 18° E
Cosmos 2221 Rocket 3.8 21:39:58 10° SSE 21:44:12 48° E 21:48:29 10° NNE
USA 229 DEB 3.8 21:37:41 10° SSW 21:44:15 53° ESE 21:51:00 10° NE
YAOGAN 11 4.2 21:40:49 15° SSE 21:44:21 61° ENE 21:48:38 10° N
USA 229 3.8 21:37:48 10° SSW 21:44:23 53° ESE 21:51:06 10° NE
ERS-1 Rocket 3.0 21:42:12 10° SSE 21:47:15 82° WSW 21:52:18 10° NNW
SeaSat 1 2.8 21:45:36 17° SE 21:49:15 55° NE 21:54:06 10° NNW
CZ-4C R/B 3.2 21:43:23 10° NW 21:50:03 55° NE 21:56:17 15° ESE
Cosmos 1844 Rocket 2.7 21:47:58 10° NNW 21:53:36 79° ENE 21:57:42 19° SE
Cosmos 2237 Rocket 3.7 21:53:21 16° ESE 21:54:14 16° E 21:57:39 10° ENE
Cosmos 2278 Rocket 3.0 21:48:54 10° NNW 21:54:15 40° NE 21:58:04 18° ESE
Cosmos 2333 Rocket 3.4 21:54:22 19° SE 21:56:33 23° ESE 22:01:00 10° NE
Cosmos 1606 3.6 21:56:54 23° SE 21:58:08 29° E 22:01:27 10° NNE
USA 267 3.6 21:57:14 10° ENE 22:03:46 71° NNW 22:10:16 10° WSW
H-2A R/B 3.2 22:02:33 21° ESE 22:04:34 31° ENE 22:08:26 10° N
MetOp-A 4.2 22:00:21 14° SSE 22:05:00 81° WSW 22:10:25 10° NNW
SPOT 5 2.7 22:02:16 19° SSE 22:05:42 81° ENE 22:10:15 10° NNW
Cosmos 1536 4.5 22:06:08 10° NNE 22:09:09 20° ENE 22:10:18 18° E
Iridium 4 Rocket 4.4 22:06:25 10° NNE 22:09:40 21° ENE 22:10:41 20° E
SL-08 RB Rocket 3.7 22:06:54 23° SSE 22:09:44 70° ENE 22:14:16 10° N
Cosmos 1898 Rocket 4.4 22:07:43 10° N 22:12:29 35° NE 22:15:14 21° ESE
Meteor 2-10 Rocket 4.4 22:08:14 10° SSW 22:13:58 59° WNW 22:19:40 10° N
Cosmos 1777 Rocket 4.5 22:12:01 10° NNW 22:17:13 58° WSW 22:21:01 18° S
SPOT 1/Viking Rocket 3.5 22:14:40 23° SSE 22:17:58 77° ENE 22:23:12 10° NNW
YAOGAN 6 4.4 22:15:13 10° SSW 22:18:23 28° W 22:21:32 10° NW
Cosmos 2219 Rocket 2.6 22:15:14 20° SSE 22:18:38 40° ESE 22:23:52 10° NE
ASTEX 1 4.1 22:16:56 26° SE 22:19:09 40° ENE 22:23:48 10° N
ATLAS 3B R/B 4.1 22:13:21 10° NW 22:19:32 32° NNE 22:25:28 10° E
Cosmos 1782 Rocket 4.4 22:16:59 10° NNW 22:21:12 48° W 22:24:48 14° SSW
Cosmos 1300 Rocket 4.3 22:18:49 10° N 22:22:52 36° ENE 22:24:16 29° ESE
Nimbus 7 Rocket 4.4 22:20:50 10° NNE 22:26:45 64° ESE 22:31:23 17° S
USA 245 4.3 22:29:04 19° S 22:32:58 63° WSW 22:37:31 10° NNW
Okean 1-7 3.6 22:30:32 10° SSW 22:34:50 59° WNW 22:39:13 10° N
Landsat 7 3.8 22:32:48 33° SSE 22:34:56 72° ENE 22:39:42 10° N
Okean 2 Rocket 3.9 22:31:19 10° NNW 22:35:41 48° W 22:38:44 18° SSW
USA 234 4.3 22:37:27 18° S 22:41:17 32° SW 22:47:03 10° WNW
Meteor 1-27 Rocket 3.9 22:39:29 31° SSE 22:41:55 53° E 22:47:20 10° NNE
MOS 1-B Rocket 4.2 22:38:03 20° S 22:42:08 60° WSW 22:47:41 10° NNW
Cosmos 1745 Rocket 4.1 22:39:24 10° N 22:45:44 68° ENE 22:48:48 32° SSE
Cosmos 1782 3.1 22:43:33 24° SSW 22:45:49 68° WNW 22:49:49 10° N
Cosmos 2084 3.4 22:42:56 10° NW 22:46:44 60° SW 22:47:32 47° S
SWAS 4.4 22:43:48 10° NNW 22:48:09 78° WSW 22:49:24 45° SSE
Cosmos 1417 Rocket 4.5 22:44:22 24° S 22:48:24 77° E 22:54:47 10° NNE
Cosmos 2369 Rocket 4.5 22:45:19 10° N 22:48:33 15° NNE 22:51:48 10° ENE
Terra 1.8 22:48:24 40° SE 22:50:03 72° ENE 22:54:50 10° N
Cosmos 2297 4.2 22:44:40 10° NNW 22:50:15 49° NE 22:52:43 30° ESE
Cosmos 1378 Rocket 4.5 22:51:10 31° E 22:51:19 31° E 22:55:14 10° NNE
Atlas Centaur 2 4.4 22:50:35 10° SW 22:54:08 16° SSW 22:54:08 16° SSW
Cosmos 2292 Rocket 4.3 22:52:31 10° NNE 22:54:28 23° NE 22:54:28 23° NE
Cosmos 1633 2.9 22:51:55 10° NNW 22:55:33 62° W 22:56:22 47° SSW
Cosmos 1602 3.7 22:52:27 10° NNW 22:56:19 79° W 22:57:05 55° S
CZ-4B R/B 4.0 22:53:37 10° NNE 22:58:01 35° E 22:58:17 35° ESE
Geosat 4.4 22:54:30 10° NE 22:59:15 40° ESE 22:59:37 39° ESE
Cosmos 2360 Rocket 3.7 22:54:20 10° WSW 22:59:33 37° NW 23:04:49 10° NNE
Cosmos 1346 Rocket 2.6 23:00:03 61° SSE 23:00:40 78° E 23:04:40 10° NNE
COSMOS 2428 3.1 22:55:10 10° SW 23:00:50 66° WNW 23:06:33 10° NNE
deb Chang Zheng 4 3.6 22:57:23 10° NNE 23:01:45 57° ESE 23:02:20 52° SE
Meteor 1-11 Rocket 3.7 22:58:14 10° NNW 23:03:46 78° W 23:06:06 36° S
Spot 4 4.0 23:05:03 45° ESE 23:06:13 58° ENE 23:10:56 10° N
Timation 1 Rocket 4.3 23:00:20 10° NNW 23:06:22 88° SW 23:08:37 41° SSE
NOSS 0 Rocket 3.8 23:04:36 29° S 23:07:49 66° ESE 23:13:56 10° NE
Okean 3 3.9 23:08:48 44° E 23:08:48 44° E 23:12:43 10° NNE
H-2A R/B 2.6 23:07:16 28° SSW 23:09:32 47° W 23:14:19 10° NNW
Cosmos 1980 3.6 23:08:16 38° S 23:10:20 63° ESE 23:15:56 10° NNE
Cosmos 2298 Rocket 4.0 23:06:58 10° NNW 23:12:21 84° ENE 23:13:54 48° SSE
CARTOSAT-1 3.6 23:11:33 51° SSW 23:12:31 71° WSW 23:16:52 10° NNW
ATLAS CENTAUR R/B 3.7 23:17:39 13° ENE 23:17:39 13° ENE 23:18:12 10° ENE
SL-16 R/B 3.1 23:16:46 31° ESE 23:16:46 31° ESE 23:21:32 10° NE
CZ-4 R/B 3.9 23:12:10 10° NNE 23:16:56 60° ESE 23:17:39 53° SE
DMSP B5D2-2 4.0 23:12:51 10° NNE 23:18:10 87° WNW 23:20:22 37° SSW
Abrixas rocket 4.1 23:15:37 10° W 23:17:05 22° WSW 23:17:05 22° WSW
PSLV R/B 4.4 23:21:36 37° NW 23:21:36 37° NW 23:23:35 10° NNW
IGS 5A 3.7 23:21:23 52° SW 23:22:02 60° WSW 23:26:11 10° NNW
Cosmos 1975 4.3 23:20:38 10° NNE 23:23:53 24° ENE 23:23:53 24° ENE
Cosmos 1570 Rocket 4.4 23:21:47 20° SW 23:25:28 64° WNW 23:30:45 10° NNE
Okean 1 Rocket 3.1 23:21:09 10° NNW 23:25:37 74° W 23:26:18 60° SSW
SL-19 R/B 4.3 23:20:22 10° NNE 23:26:31 88° ESE 23:29:01 37° SSW
SeaSat 1 3.9 23:25:23 22° SW 23:27:02 27° WSW 23:31:13 10° NW
Cosmos 1455 Rocket 4.2 23:24:19 10° N 23:28:17 30° ENE 23:28:34 30° ENE
NOSS 3-1 (C) 3.4 23:22:43 10° SW 23:28:39 85° NW 23:35:25 10° NE
Cosmos 371 Rocket 4.4 23:29:49 30° E 23:29:49 30° E 23:33:25 10° NE
Cosmos 1937 Rocket 3.4 23:24:52 10° NNW 23:30:09 83° WSW 23:31:15 57° S
Cosmos 1674 Rocket 3.8 23:29:22 46° SW 23:30:23 62° WNW 23:34:42 10° N
Cosmos 1553 Rocket 4.2 23:27:54 26° SSW 23:31:31 66° WNW 23:37:42 10° N
Cosmos 2237 Rocket 2.1 23:35:06 37° SSW 23:37:29 90° N 23:43:14 10° NNE
Cosmos 2278 Rocket 3.0 23:33:06 10° NW 23:38:22 41° WSW 23:39:56 34° SW
Cosmos 2315 Rocket 4.1 23:37:17 47° SE 23:38:42 58° E 23:44:48 10° NNE
CZ-4C R/B 3.3 23:32:00 10° NW 23:38:48 51° WSW 23:41:28 37° S
Cosmos 990 Rocket 3.8 23:34:07 10° NNW 23:39:17 82° WSW 23:40:09 62° S
DELTA 2 DEB (DPAF) 4.1 23:38:56 68° SSW 23:39:23 75° WSW 23:43:54 10° NNW
Aureole 2 Rocket 4.2 23:40:51 23° N 23:40:51 23° N 23:42:11 10° NNE
CZ-2C R/B 4.1 23:35:26 10° NE 23:39:50 24° E 23:39:51 24° E
Cosmos 2333 Rocket 2.5 23:36:16 20° SW 23:40:18 68° WNW 23:46:06 10° NNE
H-2A R/B 3.3 23:39:40 30° WSW 23:40:32 33° W 23:44:30 10° NNW
NOSS 3-1 (A) 3.4 23:40:46 19° SW 23:45:13 87° NW 23:52:01 10° NE
Cosmos 1536 3.6 23:41:59 10° NNW 23:45:50 42° W 23:46:03 42° WSW
USA 267 4.2 23:40:08 10° ENE 23:46:20 47° N 23:52:32 10° WNW
Cosmos 2150 Rocket 4.3 23:41:12 10° NNW 23:46:35 61° WSW 23:47:39 50° SSW
ATLAS 2AS CENTAUR R/B 3.5 23:46:02 36° SE 23:46:50 37° ESE 23:54:04 10° NE
Cosmos 332 Rocket 3.9 23:49:46 58° E 23:49:46 58° E 23:54:18 10° NNE
Iridium 4 Rocket 4.0 23:45:57 10° NNW 23:49:49 37° W 23:50:30 35° WSW
Gbstr 26 Del rocket 4.5 23:42:38 10° SW 23:50:25 58° SE 23:58:15 10° ENE
Cosmos 1340 3.6 23:55:34 42° NE 23:55:34 42° NE 23:58:19 10° NNE
Cosmos 1975 Rocket 3.0 23:54:41 77° ENE 23:54:41 77° ENE 23:59:03 10° NNE
Cosmos 1898 Rocket 4.3 23:49:50 10° NW 23:54:37 39° WSW 23:55:31 36° SW
